When you browse on this site, cookies collect data to enhance your experience and personalize the content and advertising you see.
Visit our Privacy Policy to learn more. By continuing to use the site, you agree to this use of cookies and data.
  • en Suisse
  • Liste des pays
  • À 7 jours
  • Température de l'eau
  • Carte satellitaire
  • Carte météo
  • Widgets météo
  • user-avatar
    Se connecter

    Météo par heure à Batken

    Ce jour, 21 Mars, Jeudi

    Heure Température Précipitation Vent Pression Humidité
    00:00 +9°C° 0 mm 1 m/s 670 mmHg 65%
    01:00 +9°C° 0 mm 1 m/s 671 mmHg 63%
    02:00 +8°C° 0 mm 1 m/s 671 mmHg 61%
    03:00 +8°C° 0 mm 1 m/s 671 mmHg 60%
    04:00 +8°C° 0 mm 1 m/s 671 mmHg 59%
    05:00 +7°C° 0 mm 1 m/s 671 mmHg 57%
    06:00 +8°C° 0 mm 1 m/s 671 mmHg 56%
    07:00 +9°C° 0 mm 1 m/s 672 mmHg 54%
    08:00 +9°C° 0 mm 1 m/s 672 mmHg 53%
    09:00 +10°C° 0 mm 1 m/s 672 mmHg 54%
    10:00 +10°C° 0 mm 2 m/s 672 mmHg 55%
    11:00 +12°C° 0 mm 2 m/s 671 mmHg 57%
    12:00 +12°C° 0 mm 2 m/s 671 mmHg 56%
    13:00 +13°C° 0 mm 2 m/s 671 mmHg 56%
    14:00 +12°C° 0 mm 3 m/s 671 mmHg 55%
    15:00 +12°C° 0.4 mm 3 m/s 671 mmHg 56%
    16:00 +13°C° 0.4 mm 2 m/s 671 mmHg 57%
    17:00 +13°C° 0.4 mm 2 m/s 671 mmHg 58%
    18:00 +12°C° 0.5 mm 2 m/s 672 mmHg 59%
    19:00 +12°C° 0.5 mm 2 m/s 673 mmHg 61%
    20:00 +10°C° 0.5 mm 2 m/s 673 mmHg 63%
    21:00 +10°C° 0 mm 2 m/s 673 mmHg 63%
    22:00 +10°C° 0 mm 1 m/s 674 mmHg 63%
    23:00 +10°C° 0 mm 1 m/s 674 mmHg 63%

    Demain, 22 Mars, Vendredi

    Heure Température Précipitation Vent Pression Humidité
    00:00 +9°C° 0 mm 1 m/s 674 mmHg 63%
    01:00 +9°C° 0 mm 1 m/s 673 mmHg 63%
    02:00 +9°C° 0 mm 1 m/s 673 mmHg 63%
    03:00 +8°C° 0 mm 1 m/s 673 mmHg 62%
    04:00 +8°C° 0 mm 1 m/s 673 mmHg 61%
    05:00 +8°C° 0 mm 1 m/s 673 mmHg 60%
    06:00 +8°C° 0 mm 1 m/s 673 mmHg 56%
    07:00 +9°C° 0 mm 1 m/s 673 mmHg 52%
    08:00 +10°C° 0 mm 1 m/s 673 mmHg 48%
    09:00 +10°C° 0 mm 2 m/s 673 mmHg 47%
    10:00 +12°C° 0 mm 2 m/s 672 mmHg 46%
    11:00 +12°C° 0 mm 3 m/s 672 mmHg 45%
    12:00 +12°C° 0 mm 3 m/s 671 mmHg 43%
    13:00 +13°C° 0 mm 3 m/s 671 mmHg 42%
    14:00 +14°C° 0 mm 4 m/s 671 mmHg 41%
    15:00 +13°C° 0 mm 3 m/s 671 mmHg 40%
    16:00 +13°C° 0 mm 3 m/s 671 mmHg 40%
    17:00 +13°C° 0 mm 3 m/s 671 mmHg 40%
    18:00 +14°C° 0 mm 2 m/s 671 mmHg 42%
    19:00 +13°C° 0 mm 2 m/s 671 mmHg 45%
    20:00 +12°C° 0 mm 1 m/s 672 mmHg 47%
    21:00 +12°C° 0 mm 1 m/s 671 mmHg 46%
    22:00 +11°C° 0 mm 1 m/s 671 mmHg 46%
    23:00 +11°C° 0 mm 1 m/s 671 mmHg 45%

    Après-demain, 23 Mars, Samedi

    Heure Température Précipitation Vent Pression Humidité
    00:00 +11°C° 0 mm 1 m/s 671 mmHg 46%
    01:00 +10°C° 0 mm 1 m/s 671 mmHg 46%
    02:00 +10°C° 0 mm 1 m/s 670 mmHg 46%
    03:00 +10°C° 0 mm 1 m/s 670 mmHg 47%
    04:00 +9°C° 0 mm 1 m/s 670 mmHg 47%
    05:00 +9°C° 0 mm 1 m/s 670 mmHg 47%
    06:00 +10°C° 0 mm 1 m/s 670 mmHg 45%
    07:00 +10°C° 0 mm 1 m/s 671 mmHg 43%
    08:00 +11°C° 0 mm 1 m/s 671 mmHg 41%
    09:00 +12°C° 0 mm 2 m/s 671 mmHg 39%
    10:00 +13°C° 0 mm 2 m/s 671 mmHg 38%
    11:00 +13°C° 0 mm 2 m/s 671 mmHg 36%
    12:00 +14°C° 0 mm 2 m/s 671 mmHg 35%
    13:00 +14°C° 0 mm 3 m/s 671 mmHg 33%
    14:00 +14°C° 0 mm 3 m/s 671 mmHg 31%
    15:00 +14°C° 0 mm 3 m/s 671 mmHg 32%
    16:00 +14°C° 0 mm 3 m/s 670 mmHg 32%
    17:00 +14°C° 0 mm 3 m/s 670 mmHg 33%
    18:00 +13°C° 0 mm 4 m/s 671 mmHg 41%
    19:00 +12°C° 0 mm 4 m/s 671 mmHg 50%
    20:00 +10°C° 0 mm 4 m/s 671 mmHg 58%
    21:00 +10°C° 0.3 mm 4 m/s 671 mmHg 64%
    22:00 +8°C° 0.3 mm 4 m/s 672 mmHg 69%
    23:00 +8°C° 0.3 mm 4 m/s 672 mmHg 75%

    24 Mars, Dimanche

    Heure Température Précipitation Vent Pression Humidité
    00:00 +9°C° 0.3 mm 3 m/s 672 mmHg 72%
    01:00 +9°C° 0.3 mm 3 m/s 672 mmHg 69%
    02:00 +9°C° 0.3 mm 2 m/s 672 mmHg 66%
    03:00 +9°C° 0 mm 1 m/s 672 mmHg 66%
    04:00 +8°C° 0 mm 1 m/s 672 mmHg 65%
    05:00 +8°C° 0 mm 1 m/s 672 mmHg 65%
    06:00 +9°C° 0 mm 1 m/s 673 mmHg 60%
    07:00 +9°C° 0 mm 1 m/s 673 mmHg 55%
    08:00 +10°C° 0 mm 1 m/s 673 mmHg 50%
    09:00 +10°C° 0 mm 2 m/s 673 mmHg 48%
    10:00 +12°C° 0 mm 2 m/s 673 mmHg 45%
    11:00 +12°C° 0 mm 3 m/s 673 mmHg 42%
    12:00 +13°C° 0 mm 3 m/s 672 mmHg 41%
    13:00 +14°C° 0 mm 3 m/s 672 mmHg 40%
    14:00 +14°C° 0 mm 3 m/s 672 mmHg 39%
    15:00 +16°C° 0 mm 3 m/s 672 mmHg 39%
    16:00 +16°C° 0 mm 3 m/s 672 mmHg 39%
    17:00 +16°C° 0 mm 3 m/s 672 mmHg 39%
    18:00 +14°C° 0.1 mm 3 m/s 672 mmHg 42%
    19:00 +14°C° 0.1 mm 2 m/s 672 mmHg 44%
    20:00 +13°C° 0.1 mm 2 m/s 673 mmHg 47%
    21:00 +12°C° 0 mm 2 m/s 673 mmHg 45%
    22:00 +12°C° 0 mm 2 m/s 673 mmHg 44%
    23:00 +10°C° 0 mm 2 m/s 673 mmHg 42%

    25 Mars, Lundi

    Heure Température Précipitation Vent Pression Humidité
    00:00 +10°C° 0 mm 2 m/s 673 mmHg 42%
    01:00 +10°C° 0 mm 2 m/s 673 mmHg 41%
    02:00 +9°C° 0 mm 2 m/s 672 mmHg 41%
    03:00 +9°C° 0 mm 2 m/s 672 mmHg 41%
    04:00 +8°C° 0 mm 2 m/s 672 mmHg 41%
    05:00 +8°C° 0 mm 2 m/s 672 mmHg 41%
    06:00 +9°C° 0 mm 2 m/s 673 mmHg 38%
    07:00 +10°C° 0 mm 2 m/s 673 mmHg 35%
    08:00 +12°C° 0 mm 2 m/s 673 mmHg 32%
    09:00 +12°C° 0 mm 3 m/s 673 mmHg 30%
    10:00 +14°C° 0 mm 3 m/s 672 mmHg 27%
    11:00 +15°C° 0 mm 4 m/s 672 mmHg 24%
    12:00 +17°C° 0 mm 4 m/s 672 mmHg 23%
    13:00 +18°C° 0 mm 4 m/s 672 mmHg 22%
    14:00 +18°C° 0 mm 4 m/s 671 mmHg 21%
    15:00 +18°C° 0 mm 4 m/s 671 mmHg 22%
    16:00 +18°C° 0 mm 4 m/s 671 mmHg 22%
    17:00 +18°C° 0 mm 3 m/s 671 mmHg 23%
    18:00 +17°C° 0 mm 3 m/s 671 mmHg 26%
    19:00 +16°C° 0 mm 2 m/s 671 mmHg 29%
    20:00 +15°C° 0 mm 2 m/s 671 mmHg 32%
    21:00 +15°C° 0 mm 2 m/s 671 mmHg 33%
    22:00 +14°C° 0 mm 1 m/s 671 mmHg 33%
    23:00 +14°C° 0 mm 1 m/s 671 mmHg 34%

    26 Mars, Mardi

    Heure Température Précipitation Vent Pression Humidité
    00:00 +14°C° 0 mm 1 m/s 671 mmHg 36%
    01:00 +13°C° 0 mm 1 m/s 671 mmHg 37%
    02:00 +13°C° 0 mm 1 m/s 671 mmHg 39%
    03:00 +12°C° 0 mm 1 m/s 671 mmHg 40%
    04:00 +12°C° 0 mm 1 m/s 672 mmHg 41%
    05:00 +11°C° 0 mm 1 m/s 672 mmHg 43%
    06:00 +12°C° 0 mm 1 m/s 672 mmHg 40%
    07:00 +13°C° 0 mm 2 m/s 673 mmHg 36%
    08:00 +14°C° 0 mm 2 m/s 673 mmHg 33%
    09:00 +16°C° 0 mm 3 m/s 673 mmHg 30%
    10:00 +17°C° 0 mm 3 m/s 673 mmHg 27%
    11:00 +18°C° 0 mm 4 m/s 673 mmHg 24%
    12:00 +19°C° 0 mm 5 m/s 673 mmHg 23%
    13:00 +20°C° 0 mm 5 m/s 673 mmHg 22%
    14:00 +21°C° 0 mm 5 m/s 673 mmHg 21%
    15:00 +21°C° 0 mm 5 m/s 673 mmHg 21%
    16:00 +21°C° 0 mm 5 m/s 672 mmHg 22%
    17:00 +21°C° 0 mm 5 m/s 672 mmHg 22%
    18:00 +19°C° 0 mm 5 m/s 672 mmHg 25%
    19:00 +18°C° 0 mm 4 m/s 672 mmHg 28%
    20:00 +17°C° 0 mm 3 m/s 672 mmHg 31%
    21:00 +16°C° 0 mm 3 m/s 671 mmHg 33%
    22:00 +16°C° 0 mm 3 m/s 671 mmHg 35%
    23:00 +16°C° 0 mm 2 m/s 671 mmHg 37%
    Voir plus